[[{"header":{"parameterUnit":"m.s-1","parameterCategory":1,"la1":30.2991,"la2":30.254,"lo1":-89.0895,"lo2":-89.0444,"dy":0.0017,"dx":0.0017,"nx":28,"ny":28,"refTime":"2025-08-23T03:00:00:Z","depth":0,"parameterNumber":2,"parameterNumberName":"U-component_of_WINDS"},"data":[0,0,0,0,0,0,0,0,0,0,0,0,0,0,0,0,0,0,0,0,0,0,0,0,0,0,0,0,0,0,0,0,0,0,0,0,0,0,0,0,0,0,0,0,0,0,0,0,0,0,0,0,0,0,0,0,0,0,3.4065,3.4066,0,3.4148,3.4149,3.415,3.4092,3.409,3.4087,3.4085,3.417,3.4174,3.4179,0,0,0,0,0,0,0,0,0,0,0,0,0,3.3855,3.3859,3.4065,3.4066,3.4067,3.4148,3.4149,3.415,3.4093,3.409,3.4086,3.4084,3.4168,3.4174,3.4179,0,0,0,0,0,0,0,0,0,0,0,0,0,3.3943,3.386,3.4065,3.4048,3.4047,3.4148,3.4149,3.415,3.4093,3.409,3.4086,3.4082,3.4166,3.4173,3.418,3.4301,0,0,3.4201,3.4204,0,0,0,0,0,0,0,0,3.3938,3.395,3.4049,3.4049,3.4049,3.4106,3.4106,3.4201,3.4094,3.4076,3.4085,3.408,3.4151,3.4159,3.4184,3.4305,3.4308,3.4202,3.4206,3.4209,3.4211,0,0,0,0,0,0,0,3.3932,3.3947,3.4098,3.4051,3.4051,3.4036,3.4044,3.4124,3.4134,3.4077,3.4073,3.4084,3.4151,3.4177,3.4185,3.431,3.4202,3.4208,3.4212,3.4215,3.4531,3.4535,0,0,0,0,0,0,3.3927,3.3942,3.4095,3.41,3.3983,3.4043,3.4052,3.4091,3.4133,3.4136,3.4087,3.4081,3.4167,3.4177,3.4188,3.433,3.4209,3.4216,3.422,3.4527,3.4532,3.4537,0,0,0,0,0,0,3.3923,3.3941,3.4092,3.402,3.4038,3.4051,3.4095,3.4095,3.4121,3.4141,3.4142,3.4112,3.4164,3.4178,3.4272,3.4332,3.4219,3.4225,3.4522,3.4529,3.4534,3.4616,0,0,0,0,0,0,3.3917,3.394,3.3987,3.4021,3.4042,3.4176,3.4099,3.41,3.4134,3.4126,3.4165,3.4167,3.4162,3.4262,3.4279,3.4339,3.4231,3.4517,3.4525,3.4532,3.4608,3.4624,3.4638,0,0,0,0,0,3.391,3.4007,3.399,3.4008,3.4101,3.4179,3.4191,3.4183,3.4139,3.4185,3.4197,3.4166,3.4323,3.4273,3.4291,3.4354,3.4513,3.4523,3.4532,3.4601,3.4621,3.4638,0,0,0,0,0,0,3.3979,3.4011,3.3992,3.4104,3.4139,3.4169,3.4228,3.4205,3.4253,3.4244,3.4233,3.4242,3.434,3.4357,3.43,3.4472,3.4411,3.4425,3.4457,3.4476,3.4491,3.4484,3.4237,0,0,0,0,0,3.4008,3.4069,3.4094,3.419,3.4209,3.4215,3.4249,3.424,3.4276,3.4291,3.431,3.4346,3.4403,3.4441,3.4495,3.4611,3.4617,3.4663,3.4678,3.4691,3.4702,3.4761,3.4781,3.4568,3.4568,3.4567,0,0,3.4067,3.4092,3.4132,3.4204,3.4231,3.4293,3.4228,3.4298,3.4344,3.4301,3.4391,3.4407,3.4446,3.4551,3.4598,3.4568,3.4762,3.4703,3.4712,3.4717,3.4773,3.4793,3.4811,3.4574,3.4573,3.4572,0,0,3.4206,3.4232,3.4313,3.4341,3.4381,3.4385,3.4405,3.4439,3.4447,3.4537,3.4505,3.456,3.4659,3.4687,3.4715,3.4863,3.4835,3.4881,3.4959,3.5018,3.5034,3.5049,3.5099,3.5118,3.4893,3.4893,3.4893,0,3.4274,3.4368,3.4358,3.443,3.4462,3.4426,3.4507,3.4534,3.4591,3.4613,3.4579,3.4701,3.4725,3.4834,3.487,3.4895,3.4915,3.4876,3.5033,3.5048,3.5061,3.5109,3.5128,3.4898,3.4898,3.4897,3.4897,0,3.4448,3.4514,3.4574,3.4628,3.4668,3.4744,3.4745,3.4786,3.4773,3.478,3.487,3.4898,3.4956,3.4981,3.497,3.5089,3.5069,3.5034,3.4972,3.5087,3.5131,3.5149,3.4906,3.4904,3.4902,3.4901,0,0,3.4632,3.4679,3.4702,3.4725,3.4766,3.4816,3.4891,3.4947,3.498,3.5021,3.5081,3.5165,3.5132,3.5164,3.5155,3.5207,3.5319,3.5165,3.5166,3.519,3.5448,3.5472,3.5493,3.5302,3.5305,3.5308,3.5444,0,3.4771,3.49,3.4893,3.5013,3.5072,3.5038,3.5102,3.5134,3.5143,3.5194,3.5203,3.5261,3.5216,3.5234,3.5284,3.5295,3.537,3.5285,3.5356,3.5358,3.5344,3.5517,3.5543,3.5669,3.5461,3.5464,3.5467,0,3.495,3.4995,3.5121,3.5152,3.5176,3.5234,3.5283,3.5333,3.5368,3.537,3.5405,3.5388,3.5461,3.5399,3.5498,3.5441,3.5469,3.5479,3.5484,3.5488,3.5417,3.5523,3.571,3.5728,3.5494,3.5492,3.549,0,3.5068,3.5161,3.5247,3.5269,3.5307,3.5348,3.5366,3.5397,3.5431,3.5474,3.5495,3.5547,3.5575,3.5615,3.5611,3.5567,3.5712,3.565,3.5714,3.5714,3.5744,3.5741,3.5935,3.5767,3.5767,3.5766,3.5766,0,3.5222,3.53,3.53,3.5353,3.5439,3.543,3.5514,3.5528,3.5556,3.561,3.5585,3.5636,3.563,3.5681,3.5679,3.576,3.5774,3.5776,3.5774,3.5777,3.5776,3.5793,3.5783,3.5771,3.577,3.5769,3.5768,0,3.5368,3.5372,3.5463,3.5492,3.5501,3.5562,3.5587,3.5636,3.5642,3.5711,3.5726,3.5736,3.5795,3.5796,3.5864,3.5862,3.596,3.595,3.5948,3.5945,3.6008,3.6001,3.6217,3.6244,3.6061,3.6063,3.6064,0,3.5465,3.5523,3.5558,3.5592,3.5613,3.5669,3.5702,3.5696,3.5731,3.5775,3.5819,3.5875,3.5919,3.6015,3.6027,3.6078,3.6067,3.6139,3.6074,3.6074,3.6064,3.606,3.6064,3.6151,3.6153,3.6155,3.6156,0,3.5635,3.5634,3.5683,3.5733,3.5773,3.5812,3.5848,3.5878,3.5875,3.5916,3.5976,3.601,3.6079,3.6134,3.6183,3.6201,3.6177,3.6177,3.6194,3.6196,3.6191,3.6191,3.5979,3.6171,3.617,3.6169,3.6168,3.6167,3.5757,3.5807,3.5838,3.5893,3.592,3.5954,3.6001,3.6012,3.6062,3.6116,3.611,3.6175,3.6207,3.627,3.6292,3.6342,3.6317,3.6343,3.6348,3.6354,3.6359,3.6185,3.6352,3.6351,3.6351,3.6351,3.635,0,3.5923,3.5942,3.5993,3.6043,3.6087,3.6062,3.61,3.6137,3.6195,3.6227,3.6271,3.6338,3.6391,3.6408,3.6459,3.6496,3.6486,3.6509,3.6505,3.6509,3.6381,3.6359,3.6516,3.6516,3.6516,3.6516,3.6516,3.6516,3.6015,3.6096,3.6099,3.6192,3.621,3.6274,3.6297,3.6328,3.6353,3.6429,3.6473,3.6483,3.6508,3.656,3.6608,3.6611,3.663,3.6656,3.6655,3.6535,3.6518,3.6502,3.6482,3.6661,3.6662,3.6778,3.678,3.678]},{"header":{"parameterUnit":"m.s-1","parameterCategory":1,"la1":30.2991,"la2":30.254,"lo1":-89.0895,"lo2":-89.0444,"dy":0.0017,"dx":0.0017,"nx":28,"ny":28,"refTime":"2025-08-23T03:00:00:Z","depth":0,"parameterNumber":3,"parameterNumberName":"V-component_of_WINDS"},"data":[0,0,0,0,0,0,0,0,0,0,0,0,0,0,0,0,0,0,0,0,0,0,0,0,0,0,0,0,0,0,0,0,0,0,0,0,0,0,0,0,0,0,0,0,0,0,0,0,0,0,0,0,0,0,0,0,0,0,3.1498,3.15,0,3.1698,3.17,3.1702,3.1723,3.1721,3.1719,3.1717,3.1915,3.1922,3.1929,0,0,0,0,0,0,0,0,0,0,0,0,0,3.1125,3.1132,3.1497,3.15,3.1502,3.1697,3.17,3.1703,3.1724,3.1721,3.1719,3.1717,3.1913,3.1921,3.193,0,0,0,0,0,0,0,0,0,0,0,0,0,3.1302,3.1134,3.1497,3.1537,3.1542,3.1697,3.17,3.1704,3.1724,3.1721,3.1718,3.1715,3.191,3.192,3.1931,3.2057,0,0,3.1963,3.1968,0,0,0,0,0,0,0,0,3.1292,3.1316,3.1528,3.1534,3.1541,3.1683,3.1641,3.1822,3.1725,3.1655,3.1717,3.1714,3.184,3.1856,3.19,3.2067,3.2075,3.1964,3.1971,3.1975,3.1979,0,0,0,0,0,0,0,3.128,3.1307,3.1576,3.1531,3.1539,3.1542,3.1563,3.1676,3.1761,3.1661,3.1663,3.1687,3.1842,3.1889,3.1905,3.2078,3.1964,3.1974,3.198,3.1984,3.2356,3.2359,0,0,0,0,0,0,3.1261,3.1297,3.157,3.1582,3.1407,3.1551,3.1575,3.164,3.176,3.1776,3.1689,3.1687,3.1873,3.1892,3.1912,3.2067,3.1975,3.1985,3.1992,3.2353,3.2357,3.236,0,0,0,0,0,0,3.1253,3.1285,3.1562,3.144,3.1476,3.1561,3.1633,3.1646,3.1693,3.1782,3.1796,3.1722,3.1871,3.1897,3.2021,3.2074,3.199,3.2,3.2349,3.2354,3.2359,3.2379,0,0,0,0,0,0,3.1242,3.1282,3.1334,3.1441,3.1482,3.1671,3.1636,3.1652,3.1712,3.1711,3.1817,3.1831,3.1871,3.2005,3.2032,3.2087,3.2008,3.2344,3.2351,3.2357,3.2374,3.2384,3.2393,0,0,0,0,0,3.1229,3.133,3.1336,3.1369,3.1548,3.1674,3.1697,3.1743,3.1716,3.1767,3.1824,3.1828,3.2064,3.2018,3.2048,3.2107,3.2341,3.2349,3.2357,3.237,3.2382,3.2393,0,0,0,0,0,0,3.1224,3.1345,3.1353,3.1493,3.1573,3.1677,3.1743,3.1755,3.1842,3.1838,3.1888,3.1911,3.2034,3.2083,3.2029,3.2235,3.2199,3.2213,3.2199,3.2212,3.2221,3.2207,3.2017,0,0,0,0,0,3.124,3.1334,3.1433,3.1547,3.1587,3.1658,3.1714,3.1743,3.1827,3.186,3.1926,3.2006,3.2098,3.2157,3.2247,3.2381,3.2403,3.2436,3.2446,3.2453,3.2465,3.2537,3.2553,3.2386,3.2386,3.2386,0,0,3.1272,3.135,3.1406,3.1548,3.1614,3.1708,3.1687,3.1787,3.1857,3.1875,3.1997,3.2048,3.2139,3.2269,3.2329,3.2314,3.2516,3.2463,3.2468,3.2476,3.2547,3.2563,3.2577,3.2391,3.239,3.2389,0,0,3.138,3.1449,3.155,3.1617,3.1717,3.1763,3.1787,3.189,3.1925,3.2049,3.2064,3.2145,3.2303,3.2368,3.2421,3.2551,3.2557,3.2578,3.2628,3.2698,3.2711,3.2723,3.2768,3.2784,3.2589,3.2589,3.2589,0,3.1407,3.1552,3.16,3.1701,3.1762,3.1784,3.1886,3.1947,3.207,3.211,3.2092,3.2289,3.2353,3.2497,3.2528,3.2571,3.2598,3.2567,3.2706,3.2718,3.273,3.2774,3.2791,3.2591,3.2591,3.2591,3.2591,0,3.158,3.168,3.1749,3.187,3.1939,3.2039,3.21,3.2163,3.2184,3.2231,3.2355,3.2432,3.2537,3.2573,3.2594,3.2719,3.2706,3.2696,3.2661,3.2747,3.2789,3.2806,3.2594,3.2593,3.2593,3.2592,0,0,3.1692,3.1837,3.1862,3.1917,3.2028,3.2105,3.2204,3.2309,3.2362,3.2445,3.2528,3.266,3.2652,3.2712,3.274,3.2802,3.2898,3.2784,3.2786,3.2802,3.3039,3.3046,3.3065,3.2902,3.2905,3.2908,3.3031,0,3.1812,3.1994,3.2039,3.2193,3.2285,3.2306,3.2393,3.2469,3.2515,3.2597,3.2646,3.2739,3.272,3.2757,3.2819,3.2873,3.2946,3.2865,3.2978,3.2982,3.2955,3.3087,3.3096,3.3208,3.3048,3.305,3.3053,0,3.1977,3.2066,3.223,3.2328,3.2368,3.2446,3.2544,3.2623,3.2708,3.2737,3.2804,3.2826,3.2927,3.2887,3.3026,3.2969,3.3018,3.3051,3.3056,3.3069,3.3023,3.3103,3.3245,3.3262,3.3079,3.3077,3.3075,0,3.2041,3.2202,3.232,3.2366,3.2484,3.2538,3.2588,3.2671,3.273,3.2815,3.2854,3.2948,3.3,3.3071,3.3117,3.3083,3.3251,3.3215,3.3276,3.3275,3.3312,3.3309,3.3464,3.3343,3.3342,3.3342,3.3342,0,3.2171,3.227,3.2351,3.2424,3.2535,3.2584,3.2691,3.2742,3.2815,3.2896,3.2918,3.2993,3.3048,3.313,3.3165,3.3274,3.3297,3.3322,3.333,3.332,3.3317,3.3353,3.3346,3.3346,3.3345,3.3345,3.3344,0,3.2262,3.2321,3.2451,3.2552,3.2579,3.2656,3.2741,3.2811,3.2857,3.2959,3.2985,3.3056,3.3153,3.3206,3.3326,3.335,3.3472,3.3476,3.3444,3.3448,3.3506,3.35,3.369,3.3716,3.3577,3.3578,3.358,0,3.2341,3.2418,3.2527,3.2585,3.2637,3.2728,3.279,3.284,3.2902,3.3004,3.3061,3.3159,3.3241,3.3394,3.3455,3.3547,3.3553,3.3613,3.3567,3.3554,3.3553,3.3548,3.3555,3.3621,3.3622,3.3623,3.3624,0,3.2475,3.25,3.2589,3.2688,3.276,3.284,3.2918,3.2962,3.3024,3.3092,3.3193,3.3257,3.3381,3.3477,3.3574,3.3622,3.3633,3.3638,3.3657,3.3648,3.3627,3.3639,3.3466,3.3634,3.3633,3.3632,3.3632,3.3631,3.2563,3.2632,3.272,3.2817,3.2881,3.2954,3.3024,3.3079,3.3165,3.3272,3.3295,3.34,3.3481,3.3612,3.3663,3.3744,3.3732,3.376,3.3767,3.3773,3.3775,3.3613,3.3762,3.3762,3.3761,3.3761,3.3761,0,3.2698,3.2755,3.2844,3.2954,3.303,3.3035,3.3121,3.3183,3.3277,3.3353,3.3433,3.3547,3.3641,3.3708,3.3803,3.3855,3.3862,3.3878,3.3875,3.3885,3.3781,3.3755,3.3871,3.387,3.387,3.387,3.387,3.387,3.2777,3.2894,3.2929,3.3076,3.3132,3.3238,3.3287,3.3352,3.3413,3.3541,3.3619,3.3664,3.3735,3.3835,3.392,3.3937,3.397,3.3986,3.4003,3.3904,3.3893,3.3882,3.3858,3.3993,3.3993,3.4101,3.4102,3.4102]}]]